Location: Wiesbaden
(50.0830°N, 8.2500°E)
Time: 19:40:04
(UTC+02:00)

ISS - Pass Details

Date: 20 July 2019
Orbit: 409 x 418 km, 51.6° (Epoch: 20 July)

Event Time Altitude Azimuth Distance (km) Brightness Sun altitude
Rises 22:59:47 0° 251° (WSW) 2,350 0.3 -11.6°
Reaches altitude 10° 23:01:52 10° 251° (WSW) 1,487 -0.8 -11.8°
Maximum altitude 23:05:13 86° 164° (SSE) 420 -3.9 -12.1°
Drops below altitude 10° 23:08:33 10° 75° (ENE) 1,486 -1.2 -12.4°
Sets 23:10:39 0° 75° (ENE) 2,349 -0.1 -12.6°
